Regional Weather Roundup
Issued by NWS Newport/Morehead, NC

Current Version | Previous Version | Graphics & Text | Print | Product List | Glossary On
Versions: 1 2 3 4 5 6 7 8 9 10 11 12 13 14 15 16 17 18 19 20 21 22 23 24 25 26 27 28 29 30 31 32 33 34 35 36 37 38 39 40 41 42 43 44 45 46 47 48 49 50
077 ASUS42 KMHX 260325 RWRMHX WEATHER ROUNDUP FOR EASTERN NORTH CAROLINA NATIONAL WEATHER SERVICE NEWPORT/MOREHEAD CITY NC 1100 PM EDT SUN JUN 25 2017 NOTE: "FAIR" INDICATES FEW OR NO CLOUDS BELOW 12,000 FEET WITH NO SIGNIFICANT WEATHER AND/OR OBSTRUCTIONS TO VISIBILITY NCZ015>017-031-032-045>047-102-103-260400- NORTH COAST CITY SKY/WX TMP DP RH WIND PRES REMARKS EDENTON CLOUDY 78 65 65 CALM 30.06S ELIZABETH CITY CLOUDY 75 70 84 W8 30.04F KITTY HAWK CLOUDY 75 74 97 CALM 30.03S MANTEO MOCLDY 79 75 87 NW3 30.04S $$ NCZ045>047-081-094-103-104-260400- CENTRAL COAST CITY SKY/WX TMP DP RH WIND PRES REMARKS FRISCO CLOUDY 79 75 87 SW8 30.05S $$ NCZ095-097-098-100-101-260400- SOUTHERN COAST CITY SKY/WX TMP DP RH WIND PRES REMARKS BEAUFORT LGT RAIN 77 76 96 SW5 30.05F CEDAR ISLAND NOT AVBL JACKSONVILLE CLOUDY 77 77 100 SW7 30.06R PINEY ISLAND MOCLDY N/A N/A N/A SW6 30.05F WILMINGTON CLOUDY 73 71 93 NW6 30.07S $$ NCZ011>013-027>030-043-044-078>080-089-090>093-098-260400- COASTAL PLAIN CITY SKY/WX TMP DP RH WIND PRES REMARKS AHOSKIE N/A 70 66 88 CALM 30.07F CLINTON CLOUDY 74 70 87 CALM 30.08S ELIZABETHTOWN NOT AVBL GOLDSBORO CLOUDY 78 67 68 NW6 30.05F GREENVILLE PTCLDY 77 64 65 N3 30.08S HAVELOCK CLOUDY 76 70 82 CALM 30.06F KENANSVILLE CLOUDY 73 70 88 CALM 30.08R KINSTON CLOUDY 73 68 85 CALM 30.07S NEW BERN CLOUDY 75 75 100 CALM 30.07S RICHLANDS NOT AVBL ROCKY MOUNT CLOUDY 75 64 68 CALM 30.08S WASHINGTON CLOUDY N/A N/A N/A CALM 30.06S WHITEVILLE CLOUDY 73 72 96 CALM 30.08S $$ AMZ130-135-150-152-154-156-158-170-250-252-270-ANZ085-086-088-633-658-670-260400- MARINE OBSERVATIONS STATION/POSITION TIME TEMP WIND PRES WAVE SWELL AIR SEA DIR/SP/G HT/PER HT/PER (UTC) (F) (DEG/KT/KT) (MB) (FT/S) (FT/S) CHESAPEAKE LIGHT NOT AVBL 64 E VA BEACH 0250 74 75 220/ 4/ 4 1017.4 3/ 9 2/ 9 DUCK 0300 74 64 120/ 3/ 3 1016.7 2 E DUCK NOT AVBL OREGON INLET 0300 81 84 280/ 5/ 8 1017.0 13E OREGON INLT 0248 73 N/A 2/ 7 2/ 7 HATTERAS CG 0300 77 80 240/ 7/ 9 1017.3 DIAMOND BUOY 0250 79 80 240/ 12/ 14 1017.4 3/ 8 2/ 8 CAPE LOOKOUT 0300 76 250/ 5/ 6 1017.2 BEAUFORT LAB 0300 77 78 250/ 3/ 6 1017.0 30 SE NEW RVR IN 0308 77 80 150/ 6/ 10 1018.0 30 SE NEW RVR IN 0313 80 N/A 4/ 6 27 SE WRIGHTSVLE 0308 78 80 290/ 4/ 8 1017.5 5 SE WRIGHTSVLE 0308 76 79 310/ 4/ 8 1017.9 225 S CAPE HAT 0250 81 80 210/ 10/ 12 1019.9 4/ 6 3/ 6 41 SE CHARLESTON 0310 80 81 170/ 6/ 8 1018.0 $$

USA.gov is the U.S. government's official web portal to all federal, state and local government web resources and services.